Powrót do katalogu

SL-16 DEB

AktywnyLEO
NORAD 22347·DEBRIS·🇷🇺 Russia

Wystrzelony Dec 25, 1992 z Baikonur Cosmodrome

Loading…

Następne Przeloty (najbliższe 24 godziny)

TLE

ŚwieżeSource: Space-Track

Epoka: Sep 14, 2026, 10:07 UTC

1 22347U 92093AL  26257.42164826  .00002204  00000-0  11921-2 0  9990
2 22347  70.8337 255.0546 0157841 253.9903 271.2163 14.07520636702692

Śledź SL-16 DEB w czasie rzeczywistym z AllMySat

Download on the App Store